PBO Station Position Time Series. Reference Frame : NAM14
Format Version,1.1.0
4-character ID,P311
Station name,Hunchback_CS2008
Begin Date, 2008-08-29
End Date, 2019-10-07
Release Date, 2019-10-08
Reference position, 37.1775630851 North Latitude, -118.5198020866 East Longitude, 3698.64772 meters elevation,
Date, North (mm), East (mm), Vertical (mm), North Std. Deviation (mm), East Std. Deviation (mm),              Vertical Std. Deviation (mm), Quality,
2008-08-29,0.00, 0.00, 0.00, 2.09, 1.63, 7.59, repro,
2008-08-30,1.54, -0.82, 9.80, 2.21, 1.72, 8.02, repro,
2008-08-31,-0.84, 3.33, 0.15, 2.08, 1.61, 7.46, repro,
2008-09-01,-0.59, -0.80, 3.57, 2.08, 1.61, 7.44, repro,
2008-09-02,0.29, -0.77, -2.46, 2.09, 1.62, 7.53, repro,
2008-09-03,0.39, -0.41, -1.20, 2.07, 1.62, 7.46, repro,
2008-09-04,0.40, -0.35, 0.55, 2.15, 1.70, 7.88, repro,
2008-09-05,-0.16, -0.27, 0.53, 2.14, 1.63, 7.59, repro,
2008-09-06,-0.62, 0.18, 3.68, 2.07, 1.60, 7.44, repro,
2008-09-07,-1.46, -0.90, 3.29, 2.12, 1.65, 7.66, repro,
2008-09-08,-0.20, -0.87, -0.56, 2.11, 1.65, 7.65, repro,
2008-09-09,-0.58, -2.05, -0.70, 2.08, 1.60, 7.46, repro,
2008-09-10,-0.25, -0.90, -3.11, 2.12, 1.68, 7.78, repro,
2008-09-11,-0.92, -1.93, 2.10, 2.10, 1.64, 7.63, repro,
2008-09-12,-1.80, -1.02, 3.07, 2.17, 1.76, 8.12, repro,
2008-09-13,-0.41, -0.64, 1.64, 2.16, 1.74, 8.02, repro,
2008-09-14,-0.17, 0.19, -0.91, 2.11, 1.67, 7.72, repro,
2008-09-15,-0.33, -1.35, -2.92, 2.08, 1.63, 7.56, repro,
2008-09-16,-0.09, -0.89, -2.26, 2.11, 1.66, 7.59, repro,
2008-09-17,-0.33, -0.77, -0.91, 2.16, 1.64, 7.67, repro,
2008-09-18,-0.86, 0.01, -2.92, 2.07, 1.58, 7.42, repro,
2008-09-19,-0.36, -0.97, -1.09, 2.04, 1.57, 7.30, repro,
2008-09-20,-0.07, -0.43, 1.18, 2.02, 1.56, 7.25, repro,
2008-09-21,-0.08, -0.48, 0.34, 2.09, 1.61, 7.46, repro,
2008-09-22,-0.59, -0.28, 2.13, 2.08, 1.61, 7.58, repro,
2008-09-23,-0.59, -0.74, 2.02, 2.07, 1.58, 7.42, repro,
2008-09-24,-0.24, -0.68, 1.85, 2.11, 1.66, 7.67, repro,
2008-09-25,1.06, 0.20, 0.30, 2.05, 1.60, 7.42, repro,
2008-09-26,0.02, 0.70, 6.93, 2.04, 1.57, 7.29, repro,
2008-09-27,-0.26, 0.18, 0.22, 2.09, 1.61, 7.48, repro,
2008-09-28,0.67, -1.28, -5.35, 2.28, 1.66, 7.98, repro,
2008-09-29,-0.67, -1.71, -3.49, 2.09, 1.62, 7.50, repro,
2008-09-30,-0.18, 0.13, -1.32, 2.04, 1.58, 7.33, repro,
2008-10-01,-0.59, -0.63, -2.96, 2.05, 1.57, 7.33, repro,
2008-10-02,0.19, 1.05, -1.67, 2.09, 1.61, 7.50, repro,
2008-10-03,1.06, -0.81, -0.03, 2.12, 1.66, 7.71, repro,
2008-10-04,-2.02, -1.18, -0.63, 2.05, 1.58, 7.33, repro,
2008-10-05,-0.39, -0.82, 4.40, 2.05, 1.58, 7.32, repro,
2008-10-06,-1.03, -0.77, 2.32, 2.05, 1.58, 7.33, repro,
2008-10-07,-1.30, -0.24, -2.37, 2.08, 1.58, 7.43, repro,
2008-10-08,0.36, 0.41, -2.52, 2.06, 1.60, 7.39, repro,
2008-10-09,-1.47, 0.19, -2.21, 2.00, 1.56, 7.20, repro,
2008-10-10,-1.79, -0.58, -6.10, 1.99, 1.56, 7.20, repro,
2008-10-11,-1.21, -1.33, -2.72, 2.00, 1.55, 7.20, repro,
2008-10-12,-2.20, -1.27, -3.68, 2.01, 1.56, 7.22, repro,
2008-10-13,-0.42, -0.91, -3.34, 2.02, 1.56, 7.26, repro,
2008-10-14,-0.46, 0.04, -3.24, 2.01, 1.56, 7.28, repro,
2008-10-15,-0.95, -0.77, -3.12, 2.06, 1.58, 7.39, repro,
2008-10-16,-0.87, -0.39, -6.08, 2.05, 1.58, 7.38, repro,
2008-10-17,-1.95, -0.40, -10.55, 2.01, 1.55, 7.20, repro,
2008-10-18,-2.44, -2.08, -7.74, 2.00, 1.56, 7.22, repro,
2008-10-19,-0.83, -1.05, -2.99, 2.01, 1.56, 7.23, repro,
2008-10-20,-2.02, -0.51, 0.00, 1.99, 1.56, 7.18, repro,
2008-10-21,-1.04, -0.37, -4.33, 2.05, 1.58, 7.33, repro,
2008-10-22,-1.80, -0.70, -6.60, 1.99, 1.55, 7.16, repro,
2008-10-23,-0.74, -0.59, -6.23, 2.00, 1.55, 7.18, repro,
2008-10-24,-0.51, -0.57, -1.14, 2.01, 1.56, 7.24, repro,
2008-10-25,-0.08, -0.42, 2.65, 2.00, 1.57, 7.25, repro,
2008-10-26,-0.55, -0.66, -8.03, 2.00, 1.56, 7.19, repro,
2008-10-27,-1.81, 0.04, -12.77, 1.99, 1.56, 7.18, repro,
2008-10-28,-2.44, -0.39, -17.17, 2.08, 1.57, 7.32, repro,
2008-10-29,-1.96, -0.72, -6.77, 2.09, 1.58, 7.39, repro,
2008-10-30,-1.87, -0.78, -0.45, 2.00, 1.56, 7.22, repro,
2008-10-31,-2.45, -1.93, -16.93, 2.12, 1.69, 7.69, repro,
2008-11-01,-2.34, 1.26, -19.49, 2.03, 1.62, 7.41, repro,
2008-11-02,-1.94, -1.89, -3.36, 2.05, 1.62, 7.42, repro,
2008-11-03,-0.44, -0.66, -0.36, 2.09, 1.64, 7.48, repro,
2008-11-04,-1.83, -1.59, 1.34, 2.05, 1.62, 7.44, repro,
2008-11-05,-1.51, -1.05, 0.92, 2.03, 1.60, 7.36, repro,
2008-11-06,-1.19, -1.06, -8.70, 2.03, 1.62, 7.40, repro,
2008-11-07,-1.94, -0.17, -9.97, 2.06, 1.68, 7.54, repro,
2008-11-08,-1.67, -1.16, -4.43, 2.06, 1.63, 7.46, repro,
2008-11-09,-2.37, -3.27, -5.06, 2.02, 1.60, 7.36, repro,
2008-11-10,-0.50, -1.57, 2.62, 2.04, 1.62, 7.38, repro,
2008-11-11,-1.43, -2.22, -2.76, 2.12, 1.72, 7.84, repro,
2008-11-12,-2.62, -3.58, 1.22, 2.05, 1.60, 7.42, repro,
2008-11-13,-0.54, -2.12, -2.45, 2.08, 1.64, 7.45, repro,
2008-11-14,-0.26, -2.23, -3.77, 2.11, 1.70, 7.63, repro,
2008-11-15,-1.04, -1.02, -7.91, 2.11, 1.68, 7.54, repro,
2008-11-16,-0.97, -1.25, -8.98, 2.09, 1.69, 7.57, repro,
2008-11-17,-1.55, -1.42, -9.53, 2.16, 1.79, 7.83, repro,
2008-11-18,-1.47, -0.89, -9.98, 2.37, 1.97, 8.87, repro,
2008-11-19,-0.61, -0.96, -10.02, 2.27, 1.84, 8.24, repro,
2008-11-20,-1.78, -0.42, -8.94, 2.09, 1.69, 7.58, repro,
2008-11-21,-1.24, -0.03, -8.64, 2.26, 1.86, 8.38, repro,
2008-11-22,-0.11, -1.46, -2.12, 2.25, 1.83, 8.27, repro,
2008-11-23,-1.15, -1.10, -5.55, 2.16, 1.71, 7.74, repro,
2008-11-24,-0.17, -0.57, -5.46, 2.21, 1.79, 7.94, repro,
2008-11-25,-1.78, -1.65, -6.05, 2.10, 1.72, 7.65, repro,
2008-11-26,-1.58, -1.04, -2.72, 2.00, 1.57, 7.21, repro,
2008-11-27,-0.97, -1.52, -6.45, 2.05, 1.66, 7.50, repro,
2008-11-28,-0.28, -2.22, -2.03, 2.11, 1.72, 7.70, repro,
2008-11-29,-2.16, -1.05, -4.94, 2.25, 1.88, 8.30, repro,
2008-11-30,-1.59, -1.17, -1.93, 2.07, 1.65, 7.51, repro,
2008-12-01,-1.47, -0.85, -5.55, 2.00, 1.57, 7.25, repro,
2008-12-02,-2.90, -1.90, -4.51, 2.10, 1.70, 7.59, repro,
2008-12-03,-1.76, -0.66, -3.37, 2.09, 1.68, 7.54, repro,
2008-12-04,-0.41, -1.14, -7.48, 2.17, 1.85, 7.97, repro,
2008-12-05,-0.13, -0.98, -4.92, 2.07, 1.65, 7.45, repro,
2008-12-06,-1.44, -0.48, -8.89, 2.18, 1.84, 7.87, repro,
2008-12-07,-1.82, -0.80, -6.93, 2.18, 1.86, 7.92, repro,
2008-12-08,0.19, -0.77, -1.91, 2.13, 1.67, 7.74, repro,
2008-12-09,0.06, -2.25, -5.51, 2.06, 1.61, 7.36, repro,
2008-12-10,-0.04, -1.30, -13.98, 2.05, 1.64, 7.48, repro,
2008-12-11,-0.57, -0.74, -5.17, 2.16, 1.72, 7.77, repro,
2008-12-12,-1.40, -1.04, -2.47, 2.18, 1.82, 8.01, repro,
2008-12-13,-2.94, -1.28, -2.57, 2.07, 1.66, 7.51, repro,
2008-12-14,-0.52, 2.57, 1.69, 2.01, 1.56, 7.19, repro,
2008-12-15,-2.76, -1.79, -3.96, 2.00, 1.55, 7.17, repro,
2008-12-16,-3.50, -2.32, -1.86, 2.02, 1.58, 7.25, repro,
2008-12-17,-3.50, -1.68, -6.53, 2.08, 1.61, 7.43, repro,
2008-12-18,-0.72, -0.96, -2.19, 2.00, 1.56, 7.19, repro,
2008-12-19,-3.49, -0.29, -6.83, 2.07, 1.57, 7.44, repro,
2008-12-20,-2.38, 1.29, -5.95, 2.04, 1.62, 7.34, repro,
2008-12-21,-1.41, -0.18, -8.62, 2.06, 1.63, 7.43, repro,
2008-12-22,-2.86, -1.97, -1.81, 2.02, 1.57, 7.26, repro,
2008-12-23,-2.83, -0.18, 4.73, 2.01, 1.57, 7.26, repro,
2008-12-24,-1.94, -1.28, -6.93, 2.00, 1.57, 7.25, repro,
2008-12-25,-1.58, -0.83, -5.36, 2.00, 1.56, 7.21, repro,
2008-12-26,0.13, -2.72, -0.89, 2.00, 1.57, 7.24, repro,
2008-12-27,-1.63, -1.52, -5.10, 2.02, 1.56, 7.25, repro,
2008-12-28,-1.49, -1.07, -7.64, 2.01, 1.57, 7.25, repro,
2008-12-29,-3.51, -1.08, -10.56, 2.00, 1.56, 7.18, repro,
2008-12-30,-0.89, -1.29, -11.22, 1.99, 1.55, 7.12, repro,
2008-12-31,-2.31, -1.44, -10.91, 2.00, 1.56, 7.20, repro,
2009-01-01,-2.10, -2.15, -5.96, 2.01, 1.56, 7.22, repro,
2009-01-02,-2.84, -3.28, 1.00, 2.01, 1.56, 7.26, repro,
2009-01-03,-2.41, -1.90, -5.92, 2.00, 1.56, 7.24, repro,
2009-01-04,-1.14, -2.04, -9.45, 1.99, 1.55, 7.14, repro,
2009-01-05,-0.95, -0.45, -1.77, 2.00, 1.56, 7.18, repro,
2009-01-06,-1.55, -2.20, -0.80, 2.01, 1.56, 7.21, repro,
2009-01-07,-2.09, -1.88, -8.60, 2.00, 1.56, 7.17, repro,
2009-01-08,-2.81, -1.22, -6.12, 2.02, 1.61, 7.38, repro,
2009-01-09,-1.93, -1.73, -11.81, 2.03, 1.60, 7.35, repro,
2009-01-10,-1.64, -1.41, -16.01, 2.00, 1.57, 7.19, repro,
2009-01-11,-1.34, -1.91, -17.90, 2.00, 1.57, 7.22, repro,
2009-01-12,-1.35, -1.66, -15.48, 2.00, 1.57, 7.21, repro,
2009-01-13,-2.06, -1.41, -15.88, 2.00, 1.57, 7.20, repro,
2009-01-14,-2.56, -0.97, -11.95, 2.00, 1.57, 7.20, repro,
2009-01-15,-2.51, -1.48, -15.96, 2.00, 1.58, 7.26, repro,
2009-01-16,-1.19, -1.83, -13.90, 2.05, 1.59, 7.31, repro,
2009-01-17,-1.10, -1.68, -13.43, 1.98, 1.57, 7.14, repro,
2009-01-18,-1.69, -1.35, -13.59, 1.99, 1.57, 7.18, repro,
2009-01-19,-2.13, -1.01, -12.05, 1.98, 1.57, 7.14, repro,
2009-01-20,-3.27, -0.26, -11.54, 2.00, 1.58, 7.23, repro,
2009-01-21,-2.44, -0.45, -8.16, 2.00, 1.59, 7.25, repro,
2009-01-22,-5.11, 0.57, -13.36, 1.99, 1.58, 7.21, repro,
2009-01-23,-3.73, -0.50, -11.89, 1.98, 1.56, 7.14, repro,
2009-01-24,-5.31, -2.75, -14.15, 1.97, 1.56, 7.13, repro,
2009-01-25,-4.54, -2.84, -9.00, 1.99, 1.57, 7.21, repro,
2009-01-26,-2.48, -2.43, -7.96, 2.00, 1.58, 7.27, repro,
2009-01-27,-1.60, -2.51, -6.03, 1.98, 1.58, 7.22, repro,
2009-01-28,-2.04, -2.75, -15.66, 1.98, 1.57, 7.15, repro,
2009-01-29,-2.25, -2.27, -15.26, 1.96, 1.56, 7.09, repro,
2009-01-30,-1.91, -1.76, -13.16, 1.99, 1.57, 7.17, repro,
2009-01-31,-1.79, -2.24, -9.11, 1.99, 1.57, 7.22, repro,
2009-02-01,-2.57, -1.68, -7.98, 2.01, 1.60, 7.31, repro,
2009-02-02,-1.96, -1.59, -12.30, 1.99, 1.58, 7.19, repro,
2009-02-03,-1.78, -2.24, -12.80, 1.96, 1.56, 7.06, repro,
2009-02-04,-3.55, -1.38, -10.64, 1.98, 1.57, 7.16, repro,
2009-02-05,-3.52, -2.23, -7.96, 2.01, 1.62, 7.37, repro,
2009-02-06,-4.45, -3.36, -6.21, 2.07, 1.67, 7.54, repro,
2009-02-07,-3.05, -2.70, -6.56, 2.01, 1.62, 7.34, repro,
2009-02-08,-2.28, -2.52, -5.60, 1.99, 1.61, 7.23, repro,
2009-02-09,-3.53, -2.78, -1.24, 2.02, 1.61, 7.33, repro,
2009-02-10,-3.16, -2.31, -4.22, 1.99, 1.58, 7.20, repro,
2009-02-11,-3.64, -4.76, -13.80, 2.04, 1.68, 7.52, repro,
2009-02-12,-2.26, -1.43, -3.86, 2.05, 1.68, 7.57, repro,
2009-02-13,-3.96, -2.49, -7.44, 1.99, 1.61, 7.25, repro,
2009-02-14,-3.92, -0.99, 0.19, 1.97, 1.58, 7.13, repro,
2009-02-15,-5.80, -4.45, -5.30, 2.01, 1.61, 7.36, repro,
2009-02-16,-3.94, -3.78, -0.64, 1.99, 1.59, 7.20, repro,
2009-02-17,-4.17, -3.96, -1.57, 2.03, 1.59, 7.33, repro,
2009-02-18,-3.00, -2.19, -4.94, 2.03, 1.67, 7.53, repro,
2009-02-19,-2.54, -1.97, -9.55, 2.02, 1.65, 7.53, repro,
2009-02-20,-3.04, -2.67, -13.47, 2.02, 1.65, 7.53, repro,
2009-02-21,-3.45, -3.21, -11.94, 2.00, 1.61, 7.37, repro,
2009-02-22,-2.82, -2.20, -12.91, 1.99, 1.59, 7.23, repro,
2009-02-23,-4.32, -4.53, -16.83, 2.07, 1.71, 7.81, repro,
2009-02-24,-4.16, -3.86, -11.44, 2.08, 1.71, 7.71, repro,
2009-02-25,-6.11, -4.80, -10.64, 174.32, 92.24, 202.43, repro,
2009-02-26,-3.43, -3.43, -11.11, 2.06, 1.69, 7.69, repro,
2009-02-27,-2.50, -2.67, -13.87, 2.13, 1.72, 8.01, repro,
2009-02-28,-2.76, -2.99, -13.67, 2.04, 1.67, 7.55, repro,
2009-03-01,-3.29, -4.15, -16.72, 2.11, 1.68, 7.78, repro,
2009-03-02,-3.88, -5.51, -14.17, 2.03, 1.66, 7.50, repro,
2009-03-03,-4.64, -6.05, -22.26, 2.06, 1.70, 7.63, repro,
2009-03-04,-4.56, -5.27, -15.31, 2.00, 1.61, 7.34, repro,
2009-03-05,-4.51, -3.98, -7.72, 2.03, 1.67, 7.55, repro,
2009-03-06,-2.82, -3.22, -4.65, 2.09, 1.78, 7.88, repro,
2009-03-07,-1.34, -3.60, -8.47, 2.00, 1.62, 7.32, repro,
2009-03-08,-2.42, -2.83, -9.11, 2.00, 1.63, 7.36, repro,
2009-03-09,-3.44, -2.58, -6.36, 2.03, 1.67, 7.56, repro,
2009-03-10,-2.24, -3.38, -6.70, 2.00, 1.62, 7.35, repro,
2009-03-11,-1.60, -3.35, -6.46, 1.98, 1.60, 7.18, repro,
2009-03-12,-1.98, -3.37, -15.56, 2.01, 1.63, 7.40, repro,
2009-03-13,-2.64, -3.75, -12.02, 2.03, 1.68, 7.57, repro,
2009-03-14,-1.76, -2.53, -5.51, 2.02, 1.66, 7.47, repro,
2009-03-15,-1.08, -3.18, -5.31, 1.99, 1.59, 7.20, repro,
2009-03-16,-1.55, -0.77, -6.05, 2.01, 1.64, 7.35, repro,
2009-03-17,-2.96, -3.21, -3.85, 1.97, 1.59, 7.12, repro,
2009-03-18,-1.69, -2.39, -12.80, 1.98, 1.59, 7.11, repro,
2009-03-19,-3.30, -3.62, -10.48, 1.98, 1.59, 7.14, repro,
2009-03-20,-2.43, -2.49, -6.40, 1.98, 1.59, 7.15, repro,
2009-03-21,-3.98, -4.09, -7.05, 2.01, 1.63, 7.34, repro,
2009-03-22,-3.44, -2.76, -7.36, 1.99, 1.62, 7.23, repro,
2009-03-23,-2.03, -3.27, -3.79, 1.98, 1.59, 7.12, repro,
2009-03-24,-2.32, -3.41, -11.90, 1.99, 1.59, 7.14, repro,
2009-03-25,-2.28, -3.86, -9.99, 2.01, 1.59, 7.17, repro,
2009-03-26,-1.67, -4.73, -7.69, 1.99, 1.59, 7.17, repro,
2009-03-27,-1.17, -3.38, -8.96, 2.09, 1.61, 7.52, repro,
2009-03-28,-1.82, -3.51, -11.49, 2.05, 1.68, 7.38, repro,
2009-03-29,-2.39, -2.18, -5.12, 2.02, 1.60, 7.23, repro,
2009-03-30,-1.55, -3.60, -3.30, 2.05, 1.60, 7.28, repro,
2009-03-31,-1.25, -3.88, -7.35, 2.03, 1.60, 7.24, repro,
2009-04-01,-1.64, -3.20, -6.49, 2.03, 1.60, 7.25, repro,
2009-04-02,-2.08, -4.52, -3.08, 2.07, 1.65, 7.43, repro,
2009-04-03,-3.13, -4.19, -8.15, 2.07, 1.65, 7.47, repro,
2009-04-04,-2.54, -4.10, -8.59, 2.05, 1.60, 7.30, repro,
2009-04-05,-2.10, -3.50, -14.54, 2.03, 1.59, 7.22, repro,
2009-04-06,-2.19, -2.99, -15.87, 2.04, 1.60, 7.26, repro,
2009-04-07,-2.89, -4.39, -14.83, 2.03, 1.59, 7.23, repro,
2009-04-08,-3.08, -3.82, -10.97, 2.03, 1.60, 7.26, repro,
2009-04-09,-2.11, -3.15, -10.53, 2.11, 1.64, 7.46, repro,
2009-04-10,-2.40, -4.49, -9.81, 2.05, 1.59, 7.24, repro,
2009-04-11,-2.14, -3.93, -10.85, 2.09, 1.62, 7.35, repro,
2009-04-12,-2.26, -3.84, -14.09, 2.08, 1.62, 7.32, repro,
2009-04-13,-2.38, -2.42, -14.75, 2.09, 1.64, 7.40, repro,
2009-04-14,-3.13, -4.43, -9.01, 2.06, 1.60, 7.31, repro,
2009-04-15,-2.17, -3.24, -9.55, 2.14, 1.65, 7.42, repro,
2009-04-16,-1.43, -4.59, -14.20, 2.10, 1.62, 7.32, repro,
2009-04-17,-1.76, -3.63, -14.60, 2.08, 1.62, 7.31, repro,
2009-04-18,-1.87, -2.87, -13.46, 2.08, 1.63, 7.32, repro,
2009-04-19,-2.34, -3.18, -10.39, 2.10, 1.64, 7.42, repro,
2009-04-20,-2.03, -3.44, -16.37, 2.05, 1.59, 7.20, repro,
2009-04-21,-1.06, -3.52, -15.00, 2.14, 1.66, 7.44, repro,
2009-04-22,-2.68, -3.48, -11.44, 2.14, 1.66, 7.49, repro,
2009-04-23,-4.67, -3.06, -7.15, 2.13, 1.65, 7.44, repro,
2009-04-24,-5.61, -5.57, -13.19, 2.10, 1.64, 7.37, repro,
2009-04-25,-3.35, -3.90, -12.54, 2.07, 1.60, 7.25, repro,
2009-04-26,-2.31, -3.50, -12.77, 2.07, 1.59, 7.27, repro,
2009-04-27,-2.95, -3.00, -8.56, 2.14, 1.65, 7.42, repro,
2009-04-28,-4.30, -3.71, -9.02, 2.09, 1.61, 7.30, repro,
2009-04-29,-2.72, -2.50, -3.72, 2.27, 1.79, 7.94, repro,
2009-04-30,-2.45, -0.58, -10.91, 2.17, 1.72, 7.65, repro,
2009-05-01,-4.08, -1.82, -20.69, 2.10, 1.63, 7.36, repro,
2009-05-02,-4.27, -3.19, -12.35, 2.08, 1.59, 7.28, repro,
2009-05-03,-3.73, -2.33, -20.97, 2.11, 1.62, 7.33, repro,
2009-05-04,-2.97, -1.17, -0.41, 2.15, 1.65, 7.51, repro,
2009-05-05,-4.76, -2.35, -12.59, 2.05, 1.59, 7.25, repro,
2009-05-06,-1.56, 0.82, -15.83, 2.06, 1.60, 7.30, repro,
2009-05-07,-1.78, -2.20, -5.10, 2.06, 1.62, 7.39, repro,
2009-05-08,-2.46, -1.31, -4.36, 2.04, 1.58, 7.23, repro,
2009-05-09,-2.51, -1.94, -11.67, 2.06, 1.59, 7.33, repro,
2009-05-10,-1.87, -1.16, -9.67, 2.04, 1.60, 7.33, repro,
2009-05-11,-2.50, -0.64, -6.55, 2.04, 1.60, 7.36, repro,
2009-05-12,-1.37, -0.56, -8.97, 2.13, 1.68, 7.54, repro,
2009-05-13,-1.80, -1.89, -10.05, 2.07, 1.63, 7.38, repro,
2009-05-14,-1.91, -2.90, -11.12, 2.03, 1.58, 7.27, repro,
2009-05-15,-2.16, -3.01, -10.23, 2.05, 1.60, 7.36, repro,
2009-05-16,-2.01, -1.70, -12.79, 2.04, 1.60, 7.36, repro,
2009-05-17,-1.86, -2.73, -17.64, 2.04, 1.60, 7.36, repro,
2009-05-18,-1.25, -2.73, -13.30, 2.03, 1.59, 7.31, repro,
2009-05-19,-2.32, -2.11, -13.96, 2.06, 1.61, 7.48, repro,
2009-05-20,-1.21, -1.44, -12.79, 2.03, 1.58, 7.28, repro,
2009-05-21,-2.60, -2.55, -13.55, 2.04, 1.59, 7.31, repro,
2009-05-22,-2.40, -2.82, -9.47, 2.04, 1.60, 7.37, repro,
2009-05-23,-2.18, -2.53, -12.11, 2.01, 1.59, 7.27, repro,
2009-05-24,-1.12, -2.03, -14.69, 2.02, 1.58, 7.24, repro,
2009-05-25,-1.69, -2.74, -4.81, 2.03, 1.58, 7.27, repro,
2009-05-26,-1.33, -2.79, -5.20, 2.03, 1.59, 7.34, repro,
2009-05-27,-1.92, -2.05, -8.58, 2.04, 1.59, 7.35, repro,
2009-05-28,-1.47, -3.06, -8.77, 2.07, 1.67, 7.56, repro,
2009-05-29,-1.67, -1.71, -8.93, 2.02, 1.59, 7.32, repro,
2009-05-30,-1.67, -2.47, -10.74, 2.03, 1.58, 7.28, repro,
2009-05-31,-2.55, -2.58, -14.39, 2.04, 1.59, 7.37, repro,
2009-06-01,-2.79, -3.35, -10.49, 2.03, 1.59, 7.36, repro,
2009-06-02,-1.78, -2.43, -6.03, 2.08, 1.66, 7.55, repro,
2009-06-03,-1.99, -2.50, -14.08, 2.03, 1.60, 7.41, repro,
2009-06-04,-1.81, -2.08, -12.61, 2.02, 1.59, 7.31, repro,
2009-06-05,-3.18, -1.25, -10.59, 2.08, 1.64, 7.45, repro,
2009-06-06,-2.20, -2.27, -7.65, 2.11, 1.69, 7.56, repro,
2009-06-07,-2.33, -2.41, -8.80, 2.07, 1.65, 7.50, repro,
2009-06-08,-0.57, -1.30, -9.27, 2.05, 1.65, 7.44, repro,
2009-06-09,0.08, -3.37, -4.81, 2.03, 1.60, 7.35, repro,
2009-06-10,-0.94, -2.19, -9.62, 2.06, 1.65, 7.47, repro,
2009-06-11,-1.67, -2.31, -13.00, 2.03, 1.59, 7.31, repro,
2009-06-12,-2.44, -1.44, -6.84, 2.06, 1.65, 7.50, repro,
2009-06-13,-1.51, -2.69, -8.37, 2.06, 1.65, 7.50, repro,
2009-06-14,-1.31, -0.63, -3.81, 2.06, 1.66, 7.53, repro,
2009-06-15,-1.91, -1.88, -6.83, 2.06, 1.65, 7.49, repro,
2009-06-16,-0.21, -1.84, -9.19, 2.03, 1.58, 7.29, repro,
2009-06-17,-0.52, -2.48, -10.69, 2.04, 1.59, 7.35, repro,
2009-06-18,-1.30, -2.59, -8.91, 2.06, 1.65, 7.52, repro,
2009-06-19,-0.43, -0.43, -14.52, 2.05, 1.62, 7.48, repro,
2009-06-20,-2.52, -1.07, -6.30, 2.04, 1.61, 7.44, repro,
2009-06-21,-0.94, -1.36, 5.47, 2.05, 1.65, 7.45, repro,
2009-06-22,-0.01, -1.55, -3.61, 2.03, 1.58, 7.31, repro,
2009-06-23,-1.45, -1.89, -7.67, 2.06, 1.65, 7.45, repro,
2009-06-24,-0.14, -0.47, -10.78, 2.05, 1.66, 7.49, repro,
2009-06-25,-1.49, -1.41, -11.80, 2.02, 1.59, 7.32, repro,
2009-06-26,-0.38, -1.26, -8.03, 2.08, 1.69, 7.60, repro,
2009-06-27,-0.75, -1.09, -10.92, 2.21, 1.78, 8.02, repro,
2009-06-28,-1.07, 0.21, -10.83, 2.07, 1.70, 7.59, repro,
2009-06-29,-1.01, -1.25, -1.99, 2.08, 1.70, 7.64, repro,
2009-06-30,-0.65, -1.85, -4.59, 2.03, 1.63, 7.48, repro,
2009-07-01,-0.75, -1.84, -9.80, 2.03, 1.63, 7.45, repro,
2009-07-02,0.05, -1.00, -3.01, 2.03, 1.60, 7.40, repro,
2009-07-03,-1.01, -0.84, -6.48, 2.01, 1.59, 7.28, repro,
2009-07-04,-0.35, -1.89, -3.26, 2.05, 1.62, 7.43, repro,
2009-07-05,-0.73, -0.00, -3.89, 2.02, 1.59, 7.34, repro,
2009-07-06,-0.31, 0.74, -1.53, 2.00, 1.60, 7.31, repro,
2009-07-07,-2.41, -0.48, 0.37, 2.05, 1.65, 7.48, repro,
2009-07-08,-0.49, -2.14, -3.61, 2.00, 1.58, 7.27, repro,
2009-07-09,0.07, -0.77, -3.10, 2.00, 1.59, 7.26, repro,
2009-07-10,-0.47, -1.99, -1.70, 2.00, 1.59, 7.26, repro,
2009-07-11,-4.41, -1.03, -9.66, 2.01, 1.59, 7.33, repro,
2009-07-12,-2.58, -0.38, -11.34, 2.00, 1.60, 7.32, repro,
2009-07-13,-1.65, -0.31, -4.11, 1.99, 1.59, 7.26, repro,
2009-07-14,0.56, -1.02, -2.35, 2.05, 1.62, 7.37, repro,
2009-07-15,0.12, -1.19, -2.96, 2.00, 1.59, 7.27, repro,
2009-07-16,-0.21, -1.22, -3.87, 2.00, 1.59, 7.30, repro,
2009-07-17,-0.67, 0.16, -4.00, 2.02, 1.60, 7.35, repro,
2009-07-18,-1.54, -0.75, -9.84, 1.99, 1.60, 7.30, repro,
2009-07-19,1.17, -0.41, -5.24, 2.04, 1.66, 7.46, repro,
2009-07-20,-1.45, -2.79, 1.41, 2.06, 1.70, 7.58, repro,
2009-07-21,1.53, -0.87, 5.93, 2.01, 1.59, 7.28, repro,
2009-07-22,-1.24, -0.07, -2.67, 2.05, 1.66, 7.42, repro,
2009-07-23,0.85, -0.66, -5.62, 2.01, 1.61, 7.36, repro,
2009-07-24,1.49, -2.44, -7.01, 2.03, 1.65, 7.43, repro,
2009-07-25,0.40, -0.81, -9.90, 2.10, 1.69, 7.66, repro,
2009-07-26,-1.21, 1.40, -6.38, 2.09, 1.71, 7.68, repro,
2009-07-27,1.67, -0.75, -2.37, 2.02, 1.60, 7.32, repro,
2009-07-28,1.62, -0.56, -7.22, 2.01, 1.60, 7.27, repro,
2009-07-29,0.34, -1.56, -5.27, 2.05, 1.63, 7.42, repro,
2009-07-30,0.93, 0.20, -0.55, 2.09, 1.62, 7.56, repro,
2009-07-31,0.67, -1.78, -4.28, 2.03, 1.61, 7.35, repro,
2009-08-01,0.61, -1.09, -0.14, 2.06, 1.62, 7.37, repro,
2009-08-02,-0.58, -0.58, -7.08, 2.01, 1.60, 7.27, repro,
2009-08-03,0.01, -0.02, -5.55, 2.01, 1.61, 7.30, repro,
2009-08-04,-0.94, 1.64, -21.21, 2.04, 1.67, 7.50, repro,
2009-08-05,-0.36, -2.01, -18.49, 2.08, 1.62, 7.42, repro,
2009-08-06,-0.59, -0.46, -11.93, 2.01, 1.60, 7.27, repro,
2009-08-07,0.47, -1.63, -3.94, 2.46, 2.02, 9.06, repro,
2009-08-08,0.75, -1.18, -7.31, 2.05, 1.62, 7.36, repro,
2009-08-09,0.40, -0.47, -8.01, 2.05, 1.63, 7.41, repro,
2009-08-10,0.80, -0.55, -5.74, 2.01, 1.62, 7.32, repro,
2009-08-11,1.74, 0.01, -6.32, 2.02, 1.60, 7.25, repro,
2009-08-12,1.45, -1.34, -4.46, 2.06, 1.62, 7.34, repro,
2009-08-13,1.33, -3.09, -1.66, 2.06, 1.63, 7.40, repro,
2009-08-14,1.71, -0.69, -3.91, 2.06, 1.63, 7.39, repro,
2009-08-15,1.76, -0.32, -1.10, 2.07, 1.62, 7.42, repro,
2009-08-16,1.37, -1.19, -4.27, 2.06, 1.62, 7.36, repro,
2009-08-17,1.32, -0.97, -1.52, 2.06, 1.62, 7.39, repro,
2009-08-18,1.91, -0.59, -0.96, 2.06, 1.62, 7.40, repro,
2009-08-19,0.92, -0.83, -2.12, 2.00, 1.60, 7.21, repro,
2009-08-20,-0.53, -0.00, -5.43, 2.06, 1.64, 7.49, repro,
2009-08-21,1.25, -0.09, 2.62, 2.08, 1.66, 7.54, repro,
2009-08-22,0.27, -0.97, -5.32, 2.28, 1.81, 8.38, repro,
2009-08-23,0.68, -0.95, -4.58, 2.18, 1.72, 8.11, repro,
2009-08-24,2.93, -2.54, 0.63, 2.05, 1.65, 7.45, repro,
2009-08-25,1.67, -1.80, -4.26, 2.05, 1.65, 7.43, repro,
2009-08-26,0.94, -0.44, -1.26, 2.08, 1.66, 7.54, repro,
2009-08-27,-0.04, -0.16, -3.99, 2.09, 1.66, 7.54, repro,
2009-08-28,1.30, -1.81, -10.45, 2.02, 1.60, 7.25, repro,
2009-08-29,0.73, 0.58, -3.59, 2.01, 1.61, 7.25, repro,
2009-08-30,0.26, -0.77, -2.80, 2.03, 1.64, 7.35, repro,
2009-08-31,0.20, -0.16, -1.81, 2.05, 1.65, 7.48, repro,
2009-09-01,0.85, 0.82, 0.62, 2.04, 1.61, 7.38, repro,
2009-09-02,-0.41, -2.00, -4.28, 2.23, 1.86, 8.42, repro,
2009-09-03,0.40, -0.61, -2.12, 2.00, 1.61, 7.28, repro,
2009-09-04,-0.00, -1.83, -7.47, 2.01, 1.61, 7.29, repro,
2009-09-05,0.64, 0.28, -0.40, 2.05, 1.65, 7.42, repro,
2009-09-06,-1.13, -0.82, 3.84, 2.16, 1.67, 7.80, repro,
2009-09-07,0.18, -1.04, -5.23, 2.13, 1.64, 7.74, repro,
2009-09-08,0.78, -0.95, -0.83, 2.02, 1.61, 7.33, repro,
2009-09-09,0.56, -0.95, -5.41, 2.02, 1.61, 7.34, repro,
2009-09-10,0.57, -0.88, -6.68, 2.11, 1.63, 7.61, repro,
2009-09-11,0.97, -1.99, -9.34, 2.03, 1.62, 7.32, repro,
2009-09-12,0.15, -0.85, 2.54, 2.01, 1.62, 7.28, repro,
2009-09-13,-0.99, -1.02, 0.32, 2.04, 1.69, 7.47, repro,
2009-09-14,-1.07, -2.15, -0.11, 1.99, 1.61, 7.22, repro,
2009-09-15,0.51, -1.32, -3.91, 1.98, 1.61, 7.20, repro,
2009-09-16,0.82, -0.74, -2.74, 1.97, 1.60, 7.14, repro,
2009-09-17,0.37, -0.31, -3.47, 2.03, 1.67, 7.34, repro,
2009-09-18,-0.08, -0.47, -4.85, 2.05, 1.66, 7.43, repro,
2009-09-19,1.50, -0.71, -3.10, 2.01, 1.61, 7.26, repro,
2009-09-20,0.83, -0.80, 1.24, 2.02, 1.61, 7.29, repro,
2009-09-21,1.26, -0.94, -4.77, 1.99, 1.61, 7.22, repro,
2009-09-22,1.42, -0.81, -5.89, 2.03, 1.64, 7.31, repro,
2009-09-23,2.11, -2.10, -6.06, 2.07, 1.70, 7.48, repro,
2009-09-24,0.85, -0.16, 0.05, 2.02, 1.62, 7.29, repro,
2009-09-25,0.59, -1.29, -3.28, 2.03, 1.64, 7.37, repro,
2009-09-26,1.96, -0.73, -1.68, 2.00, 1.61, 7.26, repro,
2009-09-27,0.75, -0.48, -0.39, 1.97, 1.60, 7.14, repro,
2009-09-28,-0.31, -1.45, 4.99, 2.04, 1.62, 7.34, repro,
2009-09-29,-3.73, -0.96, -1.71, 2.06, 1.65, 7.38, repro,
2009-09-30,-0.66, -1.65, -2.13, 2.00, 1.61, 7.23, repro,
2009-10-01,-0.26, -0.79, -3.94, 2.00, 1.60, 7.24, repro,
2009-10-02,0.15, 0.19, 1.47, 1.99, 1.61, 7.25, repro,
2009-10-03,-0.89, -0.18, -5.63, 1.99, 1.61, 7.25, repro,
2009-10-04,-0.99, -1.82, -8.86, 1.98, 1.61, 7.27, repro,
2009-10-05,1.02, -0.80, -2.95, 1.99, 1.61, 7.25, repro,
2009-10-06,-0.17, -0.84, -2.85, 1.98, 1.60, 7.19, repro,
2009-10-07,0.73, -0.43, 1.44, 1.98, 1.60, 7.19, repro,
2009-10-08,-0.19, -1.24, 0.43, 2.07, 1.63, 7.45, repro,
2009-10-09,0.38, -0.33, -7.23, 1.99, 1.60, 7.20, repro,
2009-10-10,-0.52, -0.43, -0.04, 1.99, 1.64, 7.27, repro,
2009-10-11,-0.11, -0.41, 1.56, 1.98, 1.61, 7.22, repro,
2009-10-12,-0.44, -1.15, -1.29, 1.99, 1.64, 7.30, repro,
2009-10-13,-0.56, -0.17, -0.75, 2.07, 1.66, 7.59, repro,
2009-10-14,-1.60, -2.08, -8.68, 1.98, 1.61, 7.26, repro,
2009-10-15,0.28, 1.94, -5.02, 2.02, 1.66, 7.36, repro,